SGDC

Last updated on Wed Jul 02 2025 00:02:47 GMT+0000 (Coordinated Universal Time)

1 42692U 17023B 25182.43092641 -.00000246 00000+0 00000+0 0 9994 2 42692 0.0135 320.8391 0002063 160.7524 238.4162 1.00270640 29889
UTC large
Height (km)
Speed (km/s)
/
Latitude / Longitude
Inclination (degrees)
Orbital Period (minutes)
Azimuth
Elevation
Range (km)
Doppler Factor

Next 0 passes for location: London (51.5072 / 0.1276)

Sorry there are no passes over London.